sat.trackr.live / text

‹ back to catalog

ONEWEB-0659

NORAD 54678 · 2022-166AN

PAYLOAD ACTIVE UNKNOWN

§ Identity

Operator
Country
UK
Launch date
2022-12-08
Launch site
AFETR
Launch vehicle
Mass (kg)
RCS (m²)

Purposes: comms

External: N2YO · Heavens-Above · Gunter

§ Orbital elements

Epoch: 2026-09-20T04:00:49.059072Z

Period
108.94 min
Inclination
87.9282°
Eccentricity
0.0001935
Mean motion
13.21822923 rev/d
Perigee alt
1,176.3 km
Apogee alt
1,179.2 km
Semi-major
7,555.9 km
B*
2.5147e-3
RAAN
225.0805°
Arg perigee
79.9672°
Mean anomaly
280.1680°
Rev number
18,407

§ Raw data

ONEWEB-06591 54678U 22166AN  26263.16723448  .00001052  00000+0  25147-2 0  99992 54678  87.9282 225.0805 0001935  79.9672 280.1680 13.21822923184076

JSON: /api/v1/satellites/54678 · /tle

For live sub-satellite position, see the globe view (requires WebGL).

§ Visibility from observer

Set your observer location to see the next 7 days of passes ≥ 10°. The values pass through the URL so the page stays shareable.

No JS? Fill the form by hand. The geolocation button needs JavaScript.